Location: Arthez
(43.0833°N, 0.2500°W)
Time: 06:52:53
(UTC+00:00)

Cosmos 304 Rocket - Pass Details

Date: 06 June 2022
Orbit: 679 x 686 km, 74.0° (Epoch: 03 July)

Event Time Altitude Azimuth Distance (km) Brightness Sun altitude
Exits shadow 22:47:37 58° 186° (S) 799 3.7 -22.1°
Maximum altitude 22:48:32 82° 109° (ESE) 698 3.6 -22.2°
Drops below altitude 10° 22:53:22 10° 22° (NNE) 2,142 7.0 -22.4°
Sets 22:55:41 0° 22° (NNE) 3,062 7.9 -22.6°
